Temp
2 2 1 1 1 1 1 1 0 0 0 -0 -1 -1 -1 -1 -1 -1 -1 -2 -2 -2 -2 -1 -1 -1 -1 -1 -1 -1 -0 -0 -0 0 -0 -1 -1 -1
2 1 1 1 1 0 0 1 0 -0 -1 -0 -1 -1 -1 -1 -2 -2 -2 -2 -2 -2 -2 -1 -1 -1 -1 -0 -0 -0 -0 -0 -1 -2 -3 -3 -4 -4
1 1 1 0 -0 0 1 1 1 0 -0 -1 -1 -1 -1 -2 -3 -3 -3 -3 -2 -2 -2 -2 -2 -1 -1 -1 -1 -1 -1 -2 -2 -4 -5 -5 -6 -6
1 1 1 1 -0 0 -0 1 -0 -0 -1 -1 -2 -3 -3 -3 -3 -3 -3 -3 -4 -3 -3 -3 -3 -2 -2 -2 -2 -3 -3 -4 -5 -6 -6 -7 -7 -8
1 0 1 1 0 -0 0 0 -1 -2 -3 -3 -3 -4 -4 -4 -4 -3 -3 -5 -4 -4 -4 -4 -3 -3 -4 -4 -4 -5 -6 -6 -7 -7 -7 -8 -8 -9
0 0 1 0 -0 0 -0 -1 -2 -3 -3 -4 -4 -4 -4 -4 -4 -5 -5 -5 -4 -5 -4 -4 -4 -5 -7 -7 -7 -7 -7 -7 -7 -8 -9 -9 -10 -10
-0 -0 -1 -0 -0 -1 -2 -3 -3 -4 -4 -5 -4 -4 -4 -5 -5 -5 -5 -5 -5 -5 -5 -6 -7 -8 -8 -8 -8 -8 -8 -8 -9 -10 -10 -11 -11 -11
-1 -1 -1 -1 -2 -2 -4 -4 -4 -4 -4 -5 -4 -5 -5 -6 -6 -6 -6 -6 -6 -8 -7 -8 -9 -9 -9 -9 -9 -10 -9 -10 -10 -11 -11 -11 -11 -11
-2 -2 -2 -3 -3 -4 -4 -4 -4 -4 -4 -5 -6 -6 -6 -6 -6 -7 -7 -7 -7 -9 -9 -9 -10 -9 -9 -10 -10 -10 -10 -10 -11 -11 -11 -11 -11 -11
-3 -3 -3 -3 -3 -4 -5 -4 -5 -4 -5 -6 -7 -7 -7 -7 -7 -7 -8 -9 -10 -11 -10 -8 -10 -9 -9 -10 -10 -11 -11 -11 -12 -12 -12 -11 -11 -11
-3 -4 -4 -4 -3 -4 -4 -5 -5 -6 -7 -7 -8 -8 -8 -8 -8 -9 -10 -11 -10 -11 -11 -9 -10 -9 -10 -10 -11 -11 -12 -12 -12 -12 -12 -12 -12 -12
-4 -4 -4 -4 -5 -5 -5 -6 -7 -8 -8 -8 -8 -9 -9 -10 -10 -11 -11 -11 -10 -10 -10 -10 -10 -10 -9 -10 -10 -11 -11 -11 -11 -12 -12 -12 -12 -12
-4 -4 -4 -5 -5 -6 -6 -7 -8 -8 -9 -9 -9 -9 -10 -10 -11 -11 -11 -11 -11 -11 -11 -10 -11 -11 -11 -10 -10 -11 -11 -11 -11 -11 -12 -12 -12 -12
-4 -5 -5 -6 -6 -6 -7 -7 -8 -8 -9 -9 -9 -10 -10 -11 -11 -11 -11 -11 -11 -11 -12 -11 -11 -12 -11 -11 -10 -11 -12 -12 -12 -12 -12 -12 -12 -12
-4 -4 -5 -5 -7 -8 -8 -8 -9 -9 -9 -9 -10 -10 -10 -11 -11 -11 -11 -11 -11 -12 -12 -13 -12 -12 -12 -11 -11 -11 -11 -11 -12 -12 -12 -12 -12 -12
-4 -5 -6 -7 -7 -8 -8 -8 -9 -9 -10 -10 -10 -10 -10 -11 -11 -11 -11 -11 -12 -12 -12 -13 -13 -12 -12 -12 -12 -11 -12 -12 -12 -13 -12 -12 -12 -13
-5 -6 -7 -8 -8 -8 -9 -9 -9 -9 -9 -9 -10 -10 -10 -11 -11 -11 -11 -12 -11 -12 -12 -12 -13 -12 -12 -12 -12 -12 -12 -12 -12 -12 -12 -12 -12 -13
-6 -7 -8 -8 -8 -9 -8 -8 -8 -9 -9 -9 -10 -10 -11 -11 -11 -11 -11 -12 -12 -12 -12 -12 -12 -12 -12 -11 -12 -12 -12 -12 -12 -12 -13 -12 -11 -13
-7 -8 -8 -8 -9 -9 -9 -9 -9 -9 -10 -10 -10 -11 -11 -11 -11 -11 -12 -12 -12 -12 -12 -12 -12 -12 -12 -11 -11 -13 -13 -13 -13 -13 -13 -13 -12 -12
-8 -8 -8 -9 -9 -9 -9 -9 -10 -10 -10 -11 -11 -11 -11 -11 -11 -12 -12 -12 -12 -12 -12 -12 -13 -13 -13 -12 -11 -11 -14 -13 -13 -12 -12 -12 -13 -12
-8 -9 -9 -9 -9 -9 -10 -10 -10 -10 -11 -11 -11 -11 -11 -11 -11 -12 -12 -12 -12 -12 -12 -12 -13 -13 -13 -13 -11 -11 -12 -13 -14 -14 -13 -13 -12 -12
-9 -9 -10 -10 -10 -10 -10 -10 -10 -11 -11 -11 -11 -11 -11 -12 -12 -12 -12 -12 -12 -13 -12 -12 -12 -12 -12 -12 -12 -12 -11 -12 -13 -14 -14 -14 -13 -12
-9 -9 -10 -10 -10 -10 -11 -11 -11 -11 -11 -11 -12 -12 -12 -12 -12 -12 -12 -12 -13 -13 -12 -12 -12 -12 -12 -12 -12 -12 -12 -12 -12 -12 -13 -14 -14 -13
Height
3074 3075 3075 3075 3075 3076 3076 3075 3074 3073 3072 3070 3069 3069 3065 3063 3060 3059 3056 3055 3055 3053 3050 3047 3043 3041 3038 3034 3031 3028 3025 3022 3018 3015 3011 3008 3005 3004
3063 3063 3061 3063 3063 3064 3064 3065 3061 3064 3060 3060 3057 3054 3055 3052 3049 3048 3045 3044 3042 3041 3036 3032 3029 3027 3023 3019 3016 3012 3009 3006 3002 2998 2995 2992 2989 2988
3052 3054 3045 3050 3047 3053 3053 3054 3054 3052 3050 3049 3044 3044 3043 3039 3038 3035 3034 3031 3029 3027 3023 3019 3015 3012 3008 3004 3001 2997 2994 2990 2987 2984 2981 2979 2977 2975
3042 3043 3044 3043 3044 3044 3044 3041 3041 3039 3038 3037 3034 3033 3032 3029 3027 3024 3022 3020 3017 3014 3009 3005 3002 2998 2994 2990 2986 2983 2980 2976 2974 2971 2969 2968 2965 2963
3033 3034 3034 3034 3035 3030 3032 3032 3029 3028 3027 3025 3021 3023 3020 3018 3015 3012 3010 3008 3006 3002 2997 2993 2989 2985 2980 2976 2973 2971 2968 2965 2962 2960 2957 2954 2952 2950
3024 3026 3025 3025 3026 3024 3023 3019 3019 3019 3018 3016 3013 3011 3010 3007 3003 3000 2999 2995 2992 2990 2985 2981 2975 2970 2967 2963 2962 2959 2956 2953 2949 2945 2943 2941 2939 2938
3016 3017 3016 3017 3016 3015 3011 3010 3010 3009 3007 3007 3005 3003 2998 2994 2992 2989 2985 2982 2982 2978 2972 2967 2963 2959 2956 2952 2951 2947 2944 2940 2935 2932 2930 2928 2927 2926
3007 3008 3008 3007 3006 3005 3004 3002 3002 3000 2999 2997 2992 2988 2986 2983 2980 2977 2974 2971 2968 2966 2959 2957 2953 2951 2947 2944 2942 2938 2933 2928 2924 2921 2918 2916 2914 2913
3000 3000 2999 2998 2998 2997 2996 2995 2993 2992 2991 2987 2983 2980 2976 2973 2970 2966 2962 2957 2954 2953 2948 2946 2945 2943 2940 2937 2933 2928 2924 2919 2914 2911 2908 2904 2902 2901
2992 2993 2992 2992 2992 2990 2988 2986 2983 2983 2979 2975 2971 2968 2964 2961 2956 2952 2950 2946 2944 2944 2940 2937 2936 2932 2930 2928 2924 2920 2915 2909 2905 2900 2896 2893 2890 2889
2987 2987 2987 2986 2984 2981 2979 2979 2977 2972 2968 2963 2960 2956 2952 2949 2945 2942 2939 2938 2937 2937 2933 2928 2928 2922 2920 2920 2916 2912 2907 2901 2895 2891 2887 2884 2880 2876
2985 2983 2982 2979 2976 2973 2972 2970 2965 2962 2958 2954 2949 2945 2942 2939 2936 2934 2933 2932 2930 2929 2924 2923 2921 2914 2910 2915 2909 2903 2899 2893 2888 2883 2878 2873 2868 2864
2979 2978 2973 2972 2969 2965 2962 2959 2955 2951 2947 2943 2940 2936 2934 2932 2931 2929 2928 2927 2925 2922 2917 2912 2914 2909 2903 2896 2901 2896 2890 2884 2879 2875 2869 2863 2859 2854
2973 2971 2969 2964 2960 2956 2952 2947 2944 2941 2938 2936 2934 2932 2930 2929 2927 2925 2923 2922 2919 2917 2914 2906 2902 2898 2893 2889 2884 2886 2881 2875 2867 2864 2859 2854 2850 2845
2967 2962 2958 2953 2949 2945 2942 2939 2937 2935 2934 2932 2930 2929 2927 2925 2923 2921 2919 2917 2915 2911 2906 2901 2896 2892 2887 2880 2873 2873 2864 2865 2858 2851 2847 2842 2838 2834
2955 2950 2946 2943 2940 2937 2936 2934 2933 2932 2930 2929 2927 2926 2924 2922 2920 2918 2915 2912 2910 2908 2902 2896 2891 2885 2880 2873 2866 2861 2856 2846 2845 2840 2834 2832 2829 2824
2947 2943 2939 2936 2934 2933 2932 2931 2930 2929 2928 2927 2926 2924 2920 2918 2915 2912 2909 2907 2904 2901 2899 2891 2884 2878 2872 2865 2859 2855 2847 2841 2835 2831 2826 2821 2821 2816
2940 2937 2934 2932 2931 2930 2929 2929 2928 2927 2925 2923 2920 2918 2915 2912 2910 2907 2903 2901 2897 2894 2889 2884 2878 2871 2866 2862 2851 2846 2840 2834 2829 2823 2818 2811 2810 2808
2934 2932 2930 2929 2928 2926 2926 2925 2924 2922 2920 2917 2915 2912 2910 2907 2904 2901 2898 2894 2891 2887 2882 2876 2869 2861 2853 2848 2844 2834 2828 2826 2819 2815 2810 2806 2802 2802
2929 2928 2926 2925 2924 2924 2924 2923 2921 2919 2916 2913 2910 2907 2904 2901 2898 2895 2891 2887 2883 2880 2876 2871 2863 2855 2847 2838 2832 2830 2821 2816 2810 2805 2802 2798 2796 2794
2926 2924 2923 2922 2922 2921 2920 2919 2917 2915 2911 2908 2905 2901 2898 2894 2891 2887 2884 2880 2875 2870 2865 2861 2856 2849 2841 2833 2824 2819 2814 2809 2802 2795 2792 2788 2784 2785
2922 2920 2919 2918 2918 2917 2915 2914 2912 2910 2906 2903 2899 2895 2892 2887 2884 2880 2875 2871 2867 2861 2855 2851 2846 2840 2832 2822 2813 2807 2803 2800 2795 2788 2783 2780 2777 2770
2919 2918 2917 2916 2915 2914 2912 2910 2908 2904 2900 2897 2894 2889 2885 2881 2876 2871 2867 2862 2856 2851 2846 2840 2835 2830 2821 2813 2805 2798 2793 2790 2784 2779 2776 2770 2767 2764
Wind_Speed
43 42 42 42 41 43 41 44 44 49 49 47 49 48 51 51 51 53 50 50 47 47 50 51 50 49 49 49 50 51 52 54 56 58 59 59 59 59
45 45 48 45 45 41 42 50 48 55 50 58 48 54 52 54 52 52 52 51 50 48 49 51 51 51 51 52 53 54 55 57 57 56 53 50 49 47
47 51 46 43 48 44 46 54 49 55 56 56 53 54 55 57 52 49 51 49 50 48 50 52 52 53 53 54 55 55 55 55 53 47 44 43 43 42
44 45 48 47 46 46 50 51 58 56 51 50 53 53 53 52 49 47 47 48 46 49 50 51 52 53 53 53 53 51 49 45 41 40 41 41 41 40
45 43 44 46 50 46 49 52 53 51 46 46 47 51 49 47 45 47 46 46 47 47 50 51 52 51 49 48 46 43 39 39 40 42 43 43 42 42
39 39 44 42 44 45 53 49 46 45 45 47 45 45 46 46 48 46 46 46 46 46 48 49 47 45 41 41 37 36 37 39 42 44 44 43 42 41
36 37 41 41 46 51 42 38 40 40 41 41 42 45 46 44 44 46 47 47 46 43 44 43 40 36 34 35 35 37 39 41 43 43 43 42 40 39
36 37 40 43 42 39 34 32 34 36 39 43 44 43 42 43 44 46 45 46 45 37 38 34 29 28 32 33 33 34 37 40 42 43 43 43 42 41
39 35 35 30 30 28 28 30 33 39 44 42 40 40 42 43 44 44 42 43 40 30 31 27 25 28 29 28 28 31 35 38 40 41 42 42 41 40
19 19 19 20 24 27 32 35 34 40 40 40 40 41 42 42 43 44 40 37 30 21 23 27 26 29 29 25 25 28 32 35 37 38 40 42 42 41
11 15 20 25 29 30 33 36 38 37 38 39 41 42 43 42 40 36 27 23 20 16 22 29 27 31 29 22 23 24 27 29 32 35 38 40 41 42
17 20 23 26 30 33 36 37 37 37 38 40 40 39 35 30 24 20 19 18 20 21 28 28 26 31 33 20 22 25 27 28 30 32 36 40 41 43
20 25 27 31 34 35 39 39 38 36 33 29 25 21 18 17 17 18 19 20 21 24 29 34 28 30 34 38 27 28 30 30 32 31 35 37 38 41
26 29 32 35 38 39 39 35 28 22 17 13 12 13 14 15 17 18 20 21 23 25 27 34 36 38 40 41 40 33 31 32 35 31 32 32 34 36
32 35 36 36 34 29 22 16 13 10 10 11 11 13 14 16 18 19 21 22 22 25 28 33 37 39 40 42 44 38 40 33 33 34 34 32 31 31
34 34 33 30 23 17 12 9 9 9 10 11 13 15 17 18 18 19 20 21 20 21 26 31 34 37 38 40 42 41 40 42 36 35 36 31 30 32
32 30 25 19 13 9 8 9 8 9 11 13 15 16 17 18 19 20 20 20 21 21 22 29 35 36 38 40 42 40 37 36 35 36 36 34 26 24
27 21 16 12 9 9 8 8 9 10 12 15 17 18 18 19 19 21 21 21 21 23 27 30 34 37 36 36 41 35 32 32 32 33 32 34 26 18
22 17 12 10 10 9 9 11 13 13 15 17 19 20 20 21 21 22 22 23 24 26 28 33 37 41 43 43 39 40 36 30 34 32 31 29 26 15
19 15 11 11 10 10 11 13 15 17 17 18 20 22 23 24 23 24 25 27 28 29 30 32 37 41 43 45 43 36 32 30 32 33 31 29 26 21
16 13 12 11 11 12 13 15 17 20 20 20 21 23 25 26 26 28 29 30 33 34 35 36 37 41 43 42 41 36 32 30 32 35 32 32 32 25
13 13 13 13 13 14 15 17 19 22 23 23 23 25 27 28 29 30 31 33 34 37 38 39 39 42 43 42 44 41 36 31 31 33 32 31 30 34
13 13 13 14 15 16 17 19 21 23 25 26 26 28 29 30 32 33 33 34 36 38 39 41 41 42 43 43 44 42 39 34 35 32 29 28 28 29
Wind_Direction
251 253 254 255 258 259 267 270 265 267 270 269 264 267 267 268 269 273 271 273 279 284 288 287 287 287 287 287 287 288 288 287 287 288 287 286 285 284
253 250 250 252 252 260 266 271 262 274 268 273 265 265 275 269 272 270 273 276 279 284 286 287 288 288 288 288 288 289 289 290 290 288 287 285 282 279
249 256 259 259 262 266 270 271 273 273 268 275 277 277 272 270 268 271 274 277 281 286 287 287 288 289 290 291 291 290 291 290 288 286 284 282 281 279
251 252 260 266 264 265 273 274 270 276 266 276 277 272 272 273 274 275 279 282 287 286 287 288 290 291 291 291 290 290 289 285 284 283 283 282 280 280
255 254 263 262 270 261 267 278 270 270 266 278 278 275 275 276 278 281 284 286 285 288 289 290 291 292 290 288 287 286 284 285 286 285 285 285 285 284
254 256 258 261 274 270 274 270 273 273 274 275 275 277 277 279 282 287 282 286 289 290 290 291 291 288 285 284 284 286 287 288 288 287 288 287 286 286
255 260 259 266 268 270 274 278 280 278 276 279 279 279 280 286 284 285 287 291 291 292 291 290 287 284 286 286 291 292 293 292 289 290 289 288 286 284
255 256 260 260 266 274 277 281 282 280 279 274 278 282 284 287 289 290 292 293 295 293 288 284 281 284 284 290 293 293 290 287 288 288 287 287 287 286
249 262 268 276 278 281 281 280 282 281 278 280 283 287 289 289 290 292 294 295 295 293 287 287 287 287 292 295 297 291 287 286 285 285 286 287 288 287
255 269 279 279 276 274 277 279 280 277 283 289 294 295 294 296 295 295 293 291 292 292 292 288 300 302 302 309 301 293 289 287 287 288 288 288 288 287
264 268 276 276 275 278 281 281 284 289 294 296 294 294 295 295 292 292 294 295 294 302 298 300 314 308 311 318 304 294 290 291 290 289 287 286 286 286
274 273 273 278 284 287 288 291 295 297 295 294 295 294 294 294 297 300 301 304 306 310 304 307 316 312 310 319 318 313 307 301 296 294 291 288 287 285
284 285 292 290 290 294 294 295 297 297 297 296 296 299 304 307 306 305 306 310 312 315 309 307 315 314 315 317 323 316 312 307 301 297 291 287 285 284
294 292 290 292 294 296 297 298 299 300 302 305 308 309 307 304 304 305 307 309 310 308 308 310 316 317 317 317 317 320 314 307 304 303 300 293 289 287
296 297 296 296 298 299 298 297 300 304 308 310 311 310 307 304 304 303 303 305 308 311 312 311 312 313 314 314 314 321 315 311 308 308 306 303 298 293
307 307 305 304 302 299 300 299 302 306 311 315 313 308 304 300 297 297 299 303 308 309 310 309 310 310 312 313 315 319 316 313 313 311 308 306 302 298
307 305 302 299 295 288 286 291 292 300 303 302 299 298 298 297 298 299 301 304 309 312 315 314 315 315 315 316 317 317 314 311 307 306 304 304 305 297
311 304 296 287 275 273 273 273 283 292 298 301 302 302 301 300 299 298 299 302 307 314 319 319 319 317 315 316 317 318 314 306 305 307 307 305 312 310
305 293 278 264 268 271 277 286 293 297 301 304 305 305 303 301 297 294 294 298 304 310 316 320 322 324 323 323 324 322 319 314 310 306 303 303 304 298
296 286 271 271 267 269 277 283 288 293 299 303 306 307 306 304 299 295 295 296 299 305 310 317 322 323 322 322 322 324 316 308 306 304 304 298 295 292
284 270 268 263 265 272 278 285 291 297 300 303 306 307 305 305 303 298 296 295 298 303 309 314 318 319 317 318 317 319 321 315 310 306 305 301 300 287
277 267 263 265 272 277 283 289 294 297 300 305 308 309 309 308 306 302 299 298 299 302 306 310 313 315 316 321 320 319 322 319 311 305 298 298 293 292
274 272 272 277 281 285 291 296 299 301 303 306 307 306 307 307 306 307 305 303 302 303 306 309 312 313 318 319 319 318 320 318 311 305 302 299 291 284